Time,TemperatureF,DewpointF,PressureIn,WindDirection,WindDirectionDegrees,WindSpeedMPH,WindSpeedGustMPH,Humidity,HourlyPrecipIn,Conditions,Clouds,dailyrainin,SolarRadiationWatts/m^2,SoftwareType,DateUTC
2013-08-08 00:01:00,78.8,78.8,29.96,ENE,59,0.0,0.0,100,0.00,,,0.41,0.0,meteohub,2013-08-08 04:01:00,
2013-08-08 00:02:00,78.8,78.8,29.96,ENE,58,0.0,0.0,100,0.00,,,0.41,0.0,meteohub,2013-08-08 04:02:00,
2013-08-08 00:07:00,78.4,78.1,29.96,ENE,58,0.0,0.0,99,0.00,,,0.00,0.0,meteohub,2013-08-08 04:07:00,
2013-08-08 00:12:00,78.4,78.1,29.96,ENE,58,0.0,0.0,99,0.00,,,0.00,0.0,meteohub,2013-08-08 04:12:00,
2013-08-08 00:17:00,78.4,78.4,29.96,ENE,58,0.0,0.0,100,0.00,,,0.00,0.0,meteohub,2013-08-08 04:17:00,
2013-08-08 00:22:00,78.4,78.4,29.96,ENE,59,0.0,0.0,100,0.00,,,0.00,0.0,meteohub,2013-08-08 04:22:00,
2013-08-08 00:27:00,78.3,78.3,29.96,ENE,58,0.0,0.0,100,0.00,,,0.00,0.0,meteohub,2013-08-08 04:27:00,
2013-08-08 00:32:00,78.6,78.6,29.95,ENE,58,0.0,0.0,100,0.00,,,0.00,0.0,meteohub,2013-08-08 04:32:00,
2013-08-08 00:37:00,78.4,78.4,29.95,ENE,58,0.0,0.0,100,0.00,,,0.00,0.0,meteohub,2013-08-08 04:37:00,
2013-08-08 00:42:00,78.3,78.3,29.94,ENE,58,0.0,0.0,100,0.00,,,0.00,0.0,meteohub,2013-08-08 04:42:00,
2013-08-08 00:47:00,78.1,78.1,29.94,ENE,58,0.0,0.0,100,0.00,,,0.00,0.0,meteohub,2013-08-08 04:47:00,
2013-08-08 00:52:00,78.1,78.1,29.94,ENE,61,0.0,0.0,100,0.00,,,0.00,0.0,meteohub,2013-08-08 04:52:00,
2013-08-08 00:57:00,78.1,78.1,29.95,ENE,58,0.0,0.0,100,0.00,,,0.00,0.0,meteohub,2013-08-08 04:57:00,
2013-08-08 01:02:00,77.9,77.9,29.95,ENE,58,0.0,0.0,100,0.00,,,0.00,0.0,meteohub,2013-08-08 05:02:00,
2013-08-08 01:07:00,77.7,77.7,29.95,ENE,59,0.0,0.0,100,0.00,,,0.00,0.0,meteohub,2013-08-08 05:07:00,
2013-08-08 01:12:00,77.9,77.9,29.94,ENE,58,0.0,0.0,100,0.00,,,0.00,0.0,meteohub,2013-08-08 05:12:00,
2013-08-08 01:17:00,78.1,78.1,29.94,ENE,58,0.0,0.0,100,0.00,,,0.00,0.0,meteohub,2013-08-08 05:17:00,
2013-08-08 01:22:00,77.9,77.9,29.94,ENE,58,0.0,0.0,100,0.00,,,0.00,0.0,meteohub,2013-08-08 05:22:00,
2013-08-08 01:27:00,77.7,77.7,29.94,ENE,59,0.0,0.0,100,0.00,,,0.00,0.0,meteohub,2013-08-08 05:27:00,
2013-08-08 01:33:00,77.7,77.4,29.94,ENE,58,0.0,0.0,99,0.00,,,0.00,0.0,meteohub,2013-08-08 05:33:00,
2013-08-08 01:38:00,77.7,77.4,29.94,ENE,58,0.0,0.0,99,0.00,,,0.00,0.0,meteohub,2013-08-08 05:38:00,
2013-08-08 01:43:00,77.7,77.4,29.93,ENE,58,0.0,0.0,99,0.00,,,0.00,0.0,meteohub,2013-08-08 05:43:00,
2013-08-08 01:48:00,77.9,77.5,29.93,ENE,58,0.0,0.0,99,0.00,,,0.00,0.0,meteohub,2013-08-08 05:48:00,
2013-08-08 01:53:00,77.7,77.4,29.93,ENE,58,0.0,0.0,99,0.00,,,0.00,0.0,meteohub,2013-08-08 05:53:00,
2013-08-08 01:58:00,77.7,77.4,29.93,ENE,59,0.0,0.0,99,0.00,,,0.00,0.0,meteohub,2013-08-08 05:58:00,
2013-08-08 02:03:00,77.9,77.5,29.93,ENE,58,0.0,0.0,99,0.00,,,0.00,0.0,meteohub,2013-08-08 06:03:00,
2013-08-08 02:08:00,77.9,77.5,29.93,SE,127,0.0,0.0,99,0.00,,,0.00,0.0,meteohub,2013-08-08 06:08:00,
2013-08-08 02:13:00,77.9,77.5,29.94,SE,128,0.0,0.0,99,0.00,,,0.00,0.0,meteohub,2013-08-08 06:13:00,
2013-08-08 02:18:00,78.1,77.7,29.94,SE,127,0.0,0.0,99,0.00,,,0.00,0.0,meteohub,2013-08-08 06:18:00,
2013-08-08 02:23:00,78.1,77.5,29.94,SE,127,0.0,0.0,98,0.00,,,0.00,0.0,meteohub,2013-08-08 06:23:00,
2013-08-08 02:28:00,78.3,77.7,29.93,SE,133,4.0,0.0,98,0.00,,,0.00,0.0,meteohub,2013-08-08 06:28:00,
2013-08-08 02:33:00,77.7,76.8,29.93,ESE,114,7.0,12.0,97,0.00,,,0.00,0.0,meteohub,2013-08-08 06:33:00,
2013-08-08 02:38:00,77.4,76.5,29.93,ENE,73,4.0,18.0,97,0.00,,,0.00,0.0,meteohub,2013-08-08 06:38:00,
2013-08-08 02:43:00,77.4,76.5,29.92,ESE,121,0.0,18.0,97,0.00,,,0.00,0.0,meteohub,2013-08-08 06:43:00,
2013-08-08 02:48:00,77.5,76.3,29.92,ESE,121,0.0,16.0,96,0.00,,,0.00,0.0,meteohub,2013-08-08 06:48:00,
2013-08-08 02:53:00,77.7,76.5,29.92,ESE,117,0.0,12.0,96,0.00,,,0.00,0.0,meteohub,2013-08-08 06:53:00,
2013-08-08 02:58:00,77.7,76.5,29.93,ESE,123,0.0,5.0,96,0.00,,,0.00,0.0,meteohub,2013-08-08 06:58:00,
2013-08-08 03:03:00,77.7,76.8,29.93,ESE,121,0.0,0.0,97,0.00,,,0.00,0.0,meteohub,2013-08-08 07:03:00,
2013-08-08 03:08:00,77.7,76.8,29.93,ESE,120,0.0,0.0,97,0.00,,,0.00,0.0,meteohub,2013-08-08 07:08:00,
2013-08-08 03:13:00,77.7,76.8,29.92,ESE,120,0.0,0.0,97,0.00,,,0.00,0.0,meteohub,2013-08-08 07:13:00,
2013-08-08 03:18:00,77.7,76.8,29.92,ESE,121,0.0,0.0,97,0.00,,,0.00,0.0,meteohub,2013-08-08 07:18:00,
2013-08-08 03:24:00,77.5,76.6,29.92,ESE,121,0.0,0.0,97,0.00,,,0.00,0.0,meteohub,2013-08-08 07:24:00,
2013-08-08 03:29:00,77.7,77.2,29.92,ESE,121,0.0,0.0,98,0.00,,,0.00,0.0,meteohub,2013-08-08 07:29:00,
2013-08-08 03:34:00,77.5,77.0,29.92,ESE,121,0.0,0.0,98,0.00,,,0.00,0.0,meteohub,2013-08-08 07:34:00,
2013-08-08 03:39:00,77.5,77.0,29.92,ESE,121,0.0,0.0,98,0.00,,,0.00,0.0,meteohub,2013-08-08 07:39:00,
2013-08-08 03:44:00,77.5,77.2,29.92,ESE,121,0.0,0.0,99,0.00,,,0.00,0.0,meteohub,2013-08-08 07:44:00,
2013-08-08 03:49:00,77.4,77.0,29.92,ESE,121,0.0,0.0,99,0.00,,,0.00,0.0,meteohub,2013-08-08 07:49:00,
2013-08-08 03:54:00,77.5,77.2,29.92,ESE,121,0.0,0.0,99,0.00,,,0.00,0.0,meteohub,2013-08-08 07:54:00,
2013-08-08 03:59:00,77.5,77.2,29.91,ESE,121,0.0,0.0,99,0.00,,,0.00,0.0,meteohub,2013-08-08 07:59:00,
2013-08-08 04:04:00,77.5,77.2,29.91,ESE,121,0.0,0.0,99,0.00,,,0.00,0.0,meteohub,2013-08-08 08:04:00,
2013-08-08 04:09:00,77.4,77.0,29.91,ESE,121,0.0,0.0,99,0.00,,,0.00,0.0,meteohub,2013-08-08 08:09:00,
2013-08-08 04:14:00,77.4,77.4,29.91,ESE,121,0.0,0.0,100,0.00,,,0.00,0.0,meteohub,2013-08-08 08:14:00,
2013-08-08 04:19:00,77.4,77.4,29.91,ESE,120,0.0,0.0,100,0.00,,,0.00,0.0,meteohub,2013-08-08 08:19:00,
2013-08-08 04:24:00,77.4,77.4,29.91,ESE,120,0.0,0.0,100,0.00,,,0.00,0.0,meteohub,2013-08-08 08:24:00,
2013-08-08 04:29:00,77.4,77.4,29.91,ESE,121,0.0,0.0,100,0.00,,,0.00,0.0,meteohub,2013-08-08 08:29:00,
2013-08-08 04:34:00,77.2,77.2,29.91,ESE,121,0.0,0.0,100,0.00,,,0.00,0.0,meteohub,2013-08-08 08:34:00,
2013-08-08 04:39:00,77.4,77.4,29.91,ESE,121,0.0,0.0,100,0.00,,,0.00,0.0,meteohub,2013-08-08 08:39:00,
2013-08-08 04:44:00,77.4,77.4,29.92,ESE,121,0.0,0.0,100,0.00,,,0.00,0.0,meteohub,2013-08-08 08:44:00,
2013-08-08 04:49:00,77.4,77.4,29.92,ESE,121,0.0,0.0,100,0.00,,,0.00,0.0,meteohub,2013-08-08 08:49:00,
2013-08-08 04:54:00,77.4,77.4,29.92,ESE,120,0.0,0.0,100,0.00,,,0.00,0.0,meteohub,2013-08-08 08:54:00,
2013-08-08 04:59:00,77.4,77.4,29.91,ESE,121,0.0,0.0,100,0.00,,,0.00,0.0,meteohub,2013-08-08 08:59:00,
2013-08-08 05:04:00,77.4,77.4,29.91,ESE,121,0.0,0.0,100,0.00,,,0.00,0.0,meteohub,2013-08-08 09:04:00,
2013-08-08 05:09:00,77.4,77.4,29.91,ESE,120,0.0,0.0,100,0.00,,,0.00,0.0,meteohub,2013-08-08 09:09:00,
2013-08-08 05:14:00,77.4,77.4,29.92,ESE,121,0.0,0.0,100,0.00,,,0.00,0.0,meteohub,2013-08-08 09:14:00,
2013-08-08 05:19:00,77.4,77.4,29.92,ESE,121,0.0,0.0,100,0.00,,,0.00,0.0,meteohub,2013-08-08 09:19:00,
2013-08-08 05:24:00,77.2,77.2,29.92,ESE,121,0.0,0.0,100,0.00,,,0.00,0.0,meteohub,2013-08-08 09:24:00,
2013-08-08 05:29:00,77.4,77.4,29.93,ESE,121,0.0,0.0,100,0.00,,,0.00,0.0,meteohub,2013-08-08 09:29:00,
2013-08-08 05:34:00,77.2,77.2,29.93,ESE,121,0.0,0.0,100,0.00,,,0.00,0.0,meteohub,2013-08-08 09:34:00,
2013-08-08 05:39:00,77.2,77.2,29.93,ESE,120,0.0,0.0,100,0.00,,,0.00,0.0,meteohub,2013-08-08 09:39:00,
2013-08-08 05:44:00,77.2,77.2,29.93,ESE,121,0.0,0.0,100,0.00,,,0.00,0.0,meteohub,2013-08-08 09:44:00,
2013-08-08 05:50:00,77.2,77.2,29.93,ESE,123,0.0,0.0,100,0.00,,,0.00,0.0,meteohub,2013-08-08 09:50:00,
2013-08-08 05:55:00,77.4,77.4,29.93,ESE,121,0.0,0.0,100,0.00,,,0.00,0.0,meteohub,2013-08-08 09:55:00,
2013-08-08 06:00:00,77.4,77.4,29.93,ESE,123,0.0,0.0,100,0.00,,,0.00,0.0,meteohub,2013-08-08 10:00:00,
2013-08-08 06:05:00,77.4,77.4,29.93,ESE,120,0.0,0.0,100,0.00,,,0.00,0.0,meteohub,2013-08-08 10:05:00,
2013-08-08 06:10:00,77.4,77.4,29.93,ESE,121,0.0,0.0,100,0.00,,,0.00,0.0,meteohub,2013-08-08 10:10:00,
2013-08-08 06:15:00,77.4,77.4,29.94,ESE,121,0.0,0.0,100,0.00,,,0.00,5.0,meteohub,2013-08-08 10:15:00,
2013-08-08 06:20:00,77.4,77.4,29.94,ESE,121,0.0,0.0,100,0.00,,,0.00,9.0,meteohub,2013-08-08 10:20:00,
2013-08-08 06:25:00,77.5,77.5,29.94,ESE,121,0.0,0.0,100,0.00,,,0.00,14.0,meteohub,2013-08-08 10:25:00,
2013-08-08 06:30:00,77.7,77.7,29.94,ESE,121,0.0,0.0,100,0.00,,,0.00,19.0,meteohub,2013-08-08 10:30:00,
2013-08-08 06:35:00,77.9,77.9,29.94,ESE,120,0.0,0.0,100,0.00,,,0.00,53.0,meteohub,2013-08-08 10:35:00,
2013-08-08 06:40:00,78.1,78.1,29.94,ESE,120,0.0,0.0,100,0.00,,,0.00,70.0,meteohub,2013-08-08 10:40:00,
2013-08-08 06:45:00,78.3,78.3,29.94,ESE,121,0.0,0.0,100,0.00,,,0.00,86.0,meteohub,2013-08-08 10:45:00,
2013-08-08 06:50:00,78.6,78.6,29.94,ESE,120,0.0,0.0,100,0.00,,,0.00,102.0,meteohub,2013-08-08 10:50:00,
2013-08-08 06:55:00,78.8,78.8,29.94,ESE,121,0.0,0.0,100,0.00,,,0.00,42.0,meteohub,2013-08-08 10:55:00,
2013-08-08 07:00:00,78.8,78.4,29.95,ESE,120,0.0,0.0,99,0.00,,,0.00,121.0,meteohub,2013-08-08 11:00:00,
2013-08-08 07:05:00,79.0,78.6,29.95,ESE,121,0.0,5.0,99,0.00,,,0.00,164.0,meteohub,2013-08-08 11:05:00,
2013-08-08 07:10:00,79.3,79.0,29.95,ESE,121,0.0,5.0,99,0.00,,,0.00,123.0,meteohub,2013-08-08 11:10:00,
2013-08-08 07:15:00,79.5,79.0,29.95,SE,138,0.0,5.0,98,0.00,,,0.00,197.0,meteohub,2013-08-08 11:15:00,
2013-08-08 07:20:00,79.9,79.0,29.95,SE,137,0.0,4.0,97,0.00,,,0.00,220.0,meteohub,2013-08-08 11:20:00,
2013-08-08 07:25:00,80.1,78.8,29.95,SE,140,0.0,4.0,96,0.00,,,0.00,238.0,meteohub,2013-08-08 11:25:00,
2013-08-08 07:30:00,80.4,79.2,29.96,ESE,117,2.0,2.0,96,0.00,,,0.00,252.0,meteohub,2013-08-08 11:30:00,
2013-08-08 07:35:00,81.0,79.0,29.96,SE,126,0.0,8.0,94,0.00,,,0.00,276.0,meteohub,2013-08-08 11:35:00,
2013-08-08 07:40:00,81.1,79.0,29.96,SE,141,0.0,9.0,93,0.00,,,0.00,299.0,meteohub,2013-08-08 11:40:00,
2013-08-08 07:45:00,81.7,79.2,29.96,ESE,123,0.0,9.0,92,0.00,,,0.00,318.0,meteohub,2013-08-08 11:45:00,
2013-08-08 07:50:00,82.0,79.2,29.96,ESE,110,7.0,11.0,91,0.00,,,0.00,338.0,meteohub,2013-08-08 11:50:00,
2013-08-08 07:55:00,82.2,78.6,29.96,East,82,5.0,11.0,89,0.00,,,0.00,359.0,meteohub,2013-08-08 11:55:00,
2013-08-08 08:00:00,82.8,78.4,29.96,ESE,106,3.0,11.0,87,0.00,,,0.00,378.0,meteohub,2013-08-08 12:00:00,
2013-08-08 08:05:00,83.1,78.1,29.96,SE,127,0.0,13.0,85,0.00,,,0.00,392.0,meteohub,2013-08-08 12:05:00,
2013-08-08 08:10:00,83.7,78.3,29.96,ESE,110,8.0,13.0,84,0.00,,,0.00,413.0,meteohub,2013-08-08 12:10:00,
2013-08-08 08:15:00,84.0,78.3,29.96,SSE,147,11.0,13.0,83,0.00,,,0.00,431.0,meteohub,2013-08-08 12:15:00,
2013-08-08 08:20:00,84.0,77.9,29.96,SE,140,10.0,14.0,82,0.00,,,0.00,445.0,meteohub,2013-08-08 12:20:00,
2013-08-08 08:25:00,84.4,78.3,29.96,East,100,0.0,14.0,82,0.00,,,0.00,465.0,meteohub,2013-08-08 12:25:00,
2013-08-08 08:30:00,84.7,78.3,29.96,SE,127,10.0,14.0,81,0.00,,,0.00,482.0,meteohub,2013-08-08 12:30:00,
2013-08-08 08:35:00,84.9,78.4,29.96,ESE,103,0.0,14.0,81,0.00,,,0.00,503.0,meteohub,2013-08-08 12:35:00,
2013-08-08 08:40:00,85.1,78.6,29.96,ESE,114,0.0,11.0,81,0.00,,,0.00,523.0,meteohub,2013-08-08 12:40:00,
2013-08-08 08:46:00,85.3,78.8,29.96,ESE,116,0.0,14.0,81,0.00,,,0.00,542.0,meteohub,2013-08-08 12:46:00,
2013-08-08 08:51:00,85.3,78.8,29.96,ESE,104,13.0,14.0,81,0.00,,,0.00,558.0,meteohub,2013-08-08 12:51:00,
2013-08-08 08:56:00,85.5,79.0,29.96,ESE,112,5.0,14.0,81,0.00,,,0.00,589.0,meteohub,2013-08-08 12:56:00,
2013-08-08 09:01:00,85.6,79.2,29.97,ESE,107,7.0,14.0,81,0.00,,,0.00,611.0,meteohub,2013-08-08 13:01:00,
2013-08-08 09:06:00,85.6,79.2,29.97,ESE,116,8.0,14.0,81,0.00,,,0.00,653.0,meteohub,2013-08-08 13:06:00,
2013-08-08 09:11:00,85.8,79.3,29.97,SE,133,7.0,14.0,81,0.00,,,0.00,702.0,meteohub,2013-08-08 13:11:00,
2013-08-08 09:16:00,86.2,79.3,29.97,East,99,0.0,14.0,80,0.00,,,0.00,693.0,meteohub,2013-08-08 13:16:00,
2013-08-08 09:21:00,86.4,79.5,29.97,East,80,0.0,14.0,80,0.00,,,0.00,713.0,meteohub,2013-08-08 13:21:00,
2013-08-08 09:26:00,86.7,79.9,29.97,East,79,0.0,12.0,80,0.00,,,0.00,741.0,meteohub,2013-08-08 13:26:00,
2013-08-08 09:31:00,86.7,79.0,29.97,East,97,3.0,15.0,78,0.00,,,0.00,711.0,meteohub,2013-08-08 13:31:00,
2013-08-08 09:36:00,87.1,79.3,29.97,East,85,7.0,15.0,78,0.00,,,0.00,656.0,meteohub,2013-08-08 13:36:00,
2013-08-08 09:41:00,87.3,79.5,29.97,ENE,71,5.0,14.0,78,0.00,,,0.00,839.0,meteohub,2013-08-08 13:41:00,
2013-08-08 09:46:00,87.4,79.7,29.97,East,90,6.0,16.0,78,0.00,,,0.00,785.0,meteohub,2013-08-08 13:46:00,
2013-08-08 09:51:00,88.0,79.9,29.97,East,95,7.0,16.0,77,0.00,,,0.00,769.0,meteohub,2013-08-08 13:51:00,
2013-08-08 09:56:00,87.8,79.3,29.97,SSE,148,6.0,16.0,76,0.00,,,0.00,809.0,meteohub,2013-08-08 13:56:00,
2013-08-08 10:01:00,88.0,79.0,29.97,ESE,110,9.0,12.0,75,0.00,,,0.00,827.0,meteohub,2013-08-08 14:01:00,
2013-08-08 10:06:00,88.2,79.2,29.97,ENE,71,5.0,16.0,75,0.00,,,0.00,850.0,meteohub,2013-08-08 14:06:00,
2013-08-08 10:11:00,88.5,79.5,29.97,ESE,123,11.0,16.0,75,0.00,,,0.00,866.0,meteohub,2013-08-08 14:11:00,
2013-08-08 10:16:00,88.3,78.6,29.97,ENE,78,5.0,16.0,73,0.00,,,0.00,204.0,meteohub,2013-08-08 14:16:00,
2013-08-08 10:21:00,88.3,79.3,29.97,ESE,107,6.0,13.0,75,0.00,,,0.00,876.0,meteohub,2013-08-08 14:21:00,
2013-08-08 10:26:00,88.3,79.0,29.97,East,93,8.0,13.0,74,0.00,,,0.00,491.0,meteohub,2013-08-08 14:26:00,
2013-08-08 10:31:00,88.2,78.8,29.97,ESE,109,5.0,13.0,74,0.00,,,0.00,491.0,meteohub,2013-08-08 14:31:00,
2013-08-08 10:36:00,88.3,79.3,29.97,ENE,65,12.0,14.0,75,0.00,,,0.00,220.0,meteohub,2013-08-08 14:36:00,
2013-08-08 10:41:00,88.3,78.6,29.97,East,85,6.0,14.0,73,0.00,,,0.00,957.0,meteohub,2013-08-08 14:41:00,
2013-08-08 10:46:00,88.9,78.6,29.97,East,86,10.0,16.0,72,0.00,,,0.00,936.0,meteohub,2013-08-08 14:46:00,
2013-08-08 10:51:00,89.2,78.6,29.97,ESE,110,3.0,16.0,71,0.00,,,0.00,968.0,meteohub,2013-08-08 14:51:00,
2013-08-08 10:56:00,89.4,79.2,29.97,ESE,120,6.0,17.0,72,0.00,,,0.00,987.0,meteohub,2013-08-08 14:56:00,
2013-08-08 11:02:00,89.8,78.6,29.97,SE,136,8.0,17.0,70,0.00,,,0.00,1006.0,meteohub,2013-08-08 15:02:00,
2013-08-08 11:07:00,89.8,79.2,29.97,ENE,73,7.0,14.0,71,0.00,,,0.00,202.0,meteohub,2013-08-08 15:07:00,
2013-08-08 11:12:00,89.2,78.6,29.97,ESE,110,8.0,14.0,71,0.00,,,0.00,280.0,meteohub,2013-08-08 15:12:00,
2013-08-08 11:17:00,89.2,78.1,29.96,East,90,7.0,14.0,70,0.00,,,0.00,774.0,meteohub,2013-08-08 15:17:00,
2013-08-08 11:22:00,89.8,78.6,29.96,SE,136,9.0,16.0,70,0.00,,,0.00,774.0,meteohub,2013-08-08 15:22:00,
2013-08-08 11:27:00,90.3,79.2,29.96,ENE,72,0.0,16.0,70,0.00,,,0.00,1040.0,meteohub,2013-08-08 15:27:00,
2013-08-08 11:32:00,90.5,79.3,29.96,SE,134,8.0,17.0,70,0.00,,,0.00,999.0,meteohub,2013-08-08 15:32:00,
2013-08-08 11:37:00,90.5,79.0,29.96,ENE,78,0.0,18.0,69,0.00,,,0.00,1006.0,meteohub,2013-08-08 15:37:00,
2013-08-08 11:42:00,90.7,79.2,29.96,NE,56,10.0,18.0,69,0.00,,,0.00,1022.0,meteohub,2013-08-08 15:42:00,
2013-08-08 11:47:00,90.7,79.2,29.96,East,82,6.0,16.0,69,0.00,,,0.00,304.0,meteohub,2013-08-08 15:47:00,
2013-08-08 11:52:00,90.3,79.2,29.96,ESE,121,11.0,17.0,70,0.00,,,0.00,304.0,meteohub,2013-08-08 15:52:00,
2013-08-08 11:57:00,90.1,79.9,29.96,ESE,113,8.0,18.0,72,0.00,,,0.00,473.0,meteohub,2013-08-08 15:57:00,
2013-08-08 12:02:00,90.3,81.0,29.96,East,82,0.0,18.0,74,0.00,,,0.00,1028.0,meteohub,2013-08-08 16:02:00,
2013-08-08 12:07:00,90.7,80.8,29.96,East,80,10.0,18.0,73,0.00,,,0.00,1036.0,meteohub,2013-08-08 16:07:00,
2013-08-08 12:12:00,90.5,79.9,29.95,NNE,32,8.0,17.0,71,0.00,,,0.00,1036.0,meteohub,2013-08-08 16:12:00,
2013-08-08 12:17:00,90.5,79.3,29.95,ESE,114,2.0,18.0,70,0.00,,,0.00,964.0,meteohub,2013-08-08 16:17:00,
2013-08-08 12:23:00,90.7,80.1,29.95,SE,127,5.0,18.0,71,0.00,,,0.00,806.0,meteohub,2013-08-08 16:23:00,
2013-08-08 12:28:00,91.0,80.2,29.95,ENE,76,10.0,17.0,71,0.00,,,0.00,984.0,meteohub,2013-08-08 16:28:00,
2013-08-08 12:33:00,90.7,80.8,29.95,ESE,103,5.0,17.0,73,0.00,,,0.00,1001.0,meteohub,2013-08-08 16:33:00,
2013-08-08 12:38:00,91.0,81.1,29.95,ESE,110,8.0,17.0,73,0.00,,,0.00,984.0,meteohub,2013-08-08 16:38:00,
2013-08-08 12:43:00,91.2,81.3,29.94,ESE,112,16.0,17.0,73,0.00,,,0.00,1006.0,meteohub,2013-08-08 16:43:00,
2013-08-08 12:48:00,91.2,81.0,29.94,ENE,62,9.0,16.0,72,0.00,,,0.00,994.0,meteohub,2013-08-08 16:48:00,
2013-08-08 12:53:00,91.4,81.1,29.94,ENE,71,12.0,16.0,72,0.00,,,0.00,1087.0,meteohub,2013-08-08 16:53:00,
2013-08-08 12:58:00,91.2,80.4,29.94,ENE,66,2.0,16.0,71,0.00,,,0.00,1005.0,meteohub,2013-08-08 16:58:00,
2013-08-08 13:03:00,91.4,79.7,29.94,ESE,102,6.0,16.0,69,0.00,,,0.00,1019.0,meteohub,2013-08-08 17:03:00,
2013-08-08 13:08:00,91.8,80.1,29.94,ENE,62,2.0,17.0,69,0.00,,,0.00,1006.0,meteohub,2013-08-08 17:08:00,
2013-08-08 13:13:00,92.1,80.4,29.94,East,89,6.0,17.0,69,0.00,,,0.00,248.0,meteohub,2013-08-08 17:13:00,
2013-08-08 13:18:00,91.4,80.2,29.94,NE,35,10.0,19.0,70,0.00,,,0.00,248.0,meteohub,2013-08-08 17:18:00,
2013-08-08 13:23:00,91.6,80.4,29.94,ESE,110,7.0,19.0,70,0.00,,,0.00,1040.0,meteohub,2013-08-08 17:23:00,
2013-08-08 13:28:00,91.6,81.7,29.93,ESE,104,5.0,19.0,73,0.00,,,0.00,1036.0,meteohub,2013-08-08 17:28:00,
2013-08-08 13:33:00,91.4,81.1,29.93,ESE,110,11.0,19.0,72,0.00,,,0.00,966.0,meteohub,2013-08-08 17:33:00,
2013-08-08 13:38:00,91.8,80.6,29.93,East,92,11.0,19.0,70,0.00,,,0.00,955.0,meteohub,2013-08-08 17:38:00,
2013-08-08 13:43:00,91.8,80.6,29.92,East,95,7.0,19.0,70,0.00,,,0.00,962.0,meteohub,2013-08-08 17:43:00,
2013-08-08 13:48:00,91.8,81.0,29.92,ENE,64,6.0,17.0,71,0.00,,,0.00,1019.0,meteohub,2013-08-08 17:48:00,
2013-08-08 13:53:00,91.4,80.6,29.92,ENE,71,5.0,17.0,71,0.00,,,0.00,855.0,meteohub,2013-08-08 17:53:00,
2013-08-08 13:58:00,91.0,79.9,29.93,ESE,104,11.0,20.0,70,0.00,,,0.00,855.0,meteohub,2013-08-08 17:58:00,
2013-08-08 14:03:00,90.7,79.5,29.93,NE,38,2.0,20.0,70,0.00,,,0.00,889.0,meteohub,2013-08-08 18:03:00,
2013-08-08 14:08:00,91.2,80.4,29.93,NE,54,14.0,20.0,71,0.00,,,0.00,957.0,meteohub,2013-08-08 18:08:00,
2013-08-08 14:13:00,91.2,81.0,29.92,NE,40,11.0,18.0,72,0.00,,,0.00,901.0,meteohub,2013-08-08 18:13:00,
2013-08-08 14:18:00,91.2,81.0,29.92,East,88,8.0,19.0,72,0.00,,,0.00,973.0,meteohub,2013-08-08 18:18:00,
2013-08-08 14:23:00,91.6,80.8,29.92,ENE,58,10.0,19.0,71,0.00,,,0.00,889.0,meteohub,2013-08-08 18:23:00,
2013-08-08 14:29:00,91.2,80.4,29.91,East,95,5.0,19.0,71,0.00,,,0.00,896.0,meteohub,2013-08-08 18:29:00,
2013-08-08 14:34:00,91.4,80.2,29.91,ESE,119,10.0,19.0,70,0.00,,,0.00,869.0,meteohub,2013-08-08 18:34:00,
2013-08-08 14:39:00,91.4,80.2,29.91,ENE,69,3.0,19.0,70,0.00,,,0.00,864.0,meteohub,2013-08-08 18:39:00,
2013-08-08 14:44:00,91.2,80.1,29.91,NE,48,1.0,18.0,70,0.00,,,0.00,859.0,meteohub,2013-08-08 18:44:00,
2013-08-08 14:49:00,91.2,81.0,29.91,ESE,109,7.0,18.0,72,0.00,,,0.00,871.0,meteohub,2013-08-08 18:49:00,
2013-08-08 14:54:00,91.0,81.1,29.91,ENE,78,7.0,18.0,73,0.00,,,0.00,871.0,meteohub,2013-08-08 18:54:00,
2013-08-08 14:59:00,90.7,81.3,29.91,ENE,66,9.0,18.0,74,0.00,,,0.00,957.0,meteohub,2013-08-08 18:59:00,
2013-08-08 15:04:00,90.1,80.8,29.91,NE,48,9.0,18.0,74,0.00,,,0.00,910.0,meteohub,2013-08-08 19:04:00,
2013-08-08 15:09:00,90.0,80.6,29.91,ENE,73,12.0,18.0,74,0.00,,,0.00,878.0,meteohub,2013-08-08 19:09:00,
2013-08-08 15:14:00,90.3,80.1,29.90,ENE,75,3.0,18.0,72,0.00,,,0.00,922.0,meteohub,2013-08-08 19:14:00,
2013-08-08 15:19:00,90.3,80.1,29.90,East,96,1.0,18.0,72,0.00,,,0.00,530.0,meteohub,2013-08-08 19:19:00,
2013-08-08 15:24:00,90.0,79.3,29.90,ESE,109,5.0,17.0,71,0.00,,,0.00,493.0,meteohub,2013-08-08 19:24:00,
2013-08-08 15:29:00,90.3,79.7,29.90,ENE,72,0.0,17.0,71,0.00,,,0.00,493.0,meteohub,2013-08-08 19:29:00,
2013-08-08 15:34:00,90.7,80.4,29.90,East,95,6.0,14.0,72,0.00,,,0.00,848.0,meteohub,2013-08-08 19:34:00,
2013-08-08 15:39:00,90.7,80.4,29.90,East,89,3.0,14.0,72,0.00,,,0.00,179.0,meteohub,2013-08-08 19:39:00,
2013-08-08 15:44:00,90.0,80.6,29.90,ENE,78,0.0,17.0,74,0.00,,,0.00,185.0,meteohub,2013-08-08 19:44:00,
2013-08-08 15:50:00,89.2,79.9,29.90,ESE,107,8.0,17.0,74,0.00,,,0.00,181.0,meteohub,2013-08-08 19:50:00,
2013-08-08 15:55:00,88.9,79.5,29.90,East,95,7.0,17.0,74,0.00,,,0.00,174.0,meteohub,2013-08-08 19:55:00,
2013-08-08 16:00:00,89.1,79.3,29.90,East,95,6.0,14.0,73,0.00,,,0.00,216.0,meteohub,2013-08-08 20:00:00,
2013-08-08 16:05:00,89.1,78.8,29.90,NE,34,11.0,14.0,72,0.00,,,0.00,150.0,meteohub,2013-08-08 20:05:00,
2013-08-08 16:10:00,88.5,78.3,29.90,ENE,75,3.0,19.0,72,0.00,,,0.00,574.0,meteohub,2013-08-08 20:10:00,
2013-08-08 16:15:00,89.4,79.2,29.90,ESE,114,12.0,19.0,72,0.00,,,0.00,560.0,meteohub,2013-08-08 20:15:00,
2013-08-08 16:21:00,89.8,79.5,29.90,NE,48,0.0,19.0,72,0.00,,,0.00,554.0,meteohub,2013-08-08 20:21:00,
2013-08-08 16:25:00,89.4,79.7,29.90,East,93,7.0,17.0,73,0.00,,,0.00,574.0,meteohub,2013-08-08 20:25:00,
2013-08-08 16:31:00,90.0,80.1,29.89,NE,56,3.0,17.0,73,0.00,,,0.00,591.0,meteohub,2013-08-08 20:31:00,
2013-08-08 16:36:00,90.0,80.6,29.89,East,88,5.0,15.0,74,0.00,,,0.00,649.0,meteohub,2013-08-08 20:36:00,
2013-08-08 16:41:00,90.0,80.6,29.89,ESE,107,10.0,15.0,74,0.00,,,0.00,619.0,meteohub,2013-08-08 20:41:00,
2013-08-08 16:46:00,88.9,80.2,29.90,South,178,102.0,102.0,76,0.01,,,0.01,62.0,meteohub,2013-08-08 20:46:00,
2013-08-08 16:51:00,85.1,77.9,29.90,SSE,152,6.0,105.0,79,0.15,,,0.11,84.0,meteohub,2013-08-08 20:51:00,
2013-08-08 16:56:00,82.6,76.8,29.90,SW,224,2.0,105.0,83,0.16,,,0.16,106.0,meteohub,2013-08-08 20:56:00,
2013-08-08 17:01:00,81.7,77.4,29.91,SW,223,0.0,105.0,87,0.16,,,0.16,352.0,meteohub,2013-08-08 21:01:00,
2013-08-08 17:06:00,81.1,77.9,29.91,SW,222,0.0,7.0,90,0.16,,,0.16,146.0,meteohub,2013-08-08 21:06:00,
2013-08-08 17:11:00,81.1,79.0,29.91,SW,220,0.0,5.0,93,0.16,,,0.16,135.0,meteohub,2013-08-08 21:11:00,
2013-08-08 17:16:00,81.1,79.2,29.91,South,171,0.0,0.0,94,0.16,,,0.16,132.0,meteohub,2013-08-08 21:16:00,
2013-08-08 17:21:00,81.3,79.7,29.91,ESE,113,0.0,0.0,95,0.16,,,0.16,116.0,meteohub,2013-08-08 21:21:00,
2013-08-08 17:26:00,81.1,79.2,29.91,SE,124,0.0,3.0,94,0.16,,,0.16,113.0,meteohub,2013-08-08 21:26:00,
2013-08-08 17:31:00,81.3,79.7,29.91,SE,136,0.0,3.0,95,0.16,,,0.16,162.0,meteohub,2013-08-08 21:31:00,
2013-08-08 17:37:00,81.3,79.7,29.91,SSE,150,0.0,3.0,95,0.16,,,0.16,113.0,meteohub,2013-08-08 21:37:00,
2013-08-08 17:41:00,81.7,80.1,29.91,SSE,148,0.0,2.0,95,0.16,,,0.16,95.0,meteohub,2013-08-08 21:41:00,
2013-08-08 17:47:00,82.0,80.1,29.91,SE,144,0.0,2.0,94,0.12,,,0.16,104.0,meteohub,2013-08-08 21:47:00,
2013-08-08 17:52:00,82.0,80.1,29.91,SE,144,0.0,0.0,94,0.00,,,0.16,158.0,meteohub,2013-08-08 21:52:00,
2013-08-08 17:57:00,82.6,80.6,29.91,SE,144,0.0,0.0,94,0.00,,,0.16,113.0,meteohub,2013-08-08 21:57:00,
2013-08-08 18:02:00,82.4,79.9,29.92,SSE,168,0.0,0.0,92,0.00,,,0.16,118.0,meteohub,2013-08-08 22:02:00,
2013-08-08 18:07:00,82.4,79.9,29.92,SSE,167,0.0,0.0,92,0.00,,,0.16,111.0,meteohub,2013-08-08 22:07:00,
2013-08-08 18:12:00,82.6,80.1,29.92,East,88,4.0,4.0,92,0.00,,,0.16,55.0,meteohub,2013-08-08 22:12:00,
2013-08-08 18:17:00,82.4,79.9,29.92,East,85,0.0,6.0,92,0.04,,,0.20,26.0,meteohub,2013-08-08 22:17:00,
2013-08-08 18:22:00,82.2,80.1,29.92,East,83,0.0,6.0,93,0.06,,,0.22,23.0,meteohub,2013-08-08 22:22:00,
2013-08-08 18:27:00,82.2,80.2,29.92,East,99,4.0,6.0,94,0.08,,,0.24,26.0,meteohub,2013-08-08 22:27:00,
2013-08-08 18:32:00,81.9,79.9,29.92,ESE,109,0.0,5.0,94,0.08,,,0.24,33.0,meteohub,2013-08-08 22:32:00,
2013-08-08 18:37:00,82.0,80.4,29.92,ENE,75,5.0,5.0,95,0.08,,,0.24,28.0,meteohub,2013-08-08 22:37:00,
2013-08-08 18:42:00,81.7,79.7,29.92,ENE,62,5.0,5.0,94,0.08,,,0.24,28.0,meteohub,2013-08-08 22:42:00,
2013-08-08 18:47:00,81.9,79.9,29.92,ESE,114,7.0,11.0,94,0.08,,,0.24,30.0,meteohub,2013-08-08 22:47:00,
2013-08-08 18:52:00,81.3,79.2,29.92,SE,143,11.0,11.0,93,0.08,,,0.24,21.0,meteohub,2013-08-08 22:52:00,
2013-08-08 18:57:00,80.1,77.9,29.94,SSW,209,0.0,22.0,93,0.15,,,0.31,0.0,meteohub,2013-08-08 22:57:00,
2013-08-08 19:03:00,79.2,77.4,29.94,SW,224,2.0,22.0,94,0.28,,,0.38,0.0,meteohub,2013-08-08 23:03:00,
2013-08-08 19:08:00,78.3,76.6,29.94,SW,224,0.0,22.0,95,0.31,,,0.47,0.0,meteohub,2013-08-08 23:08:00,
2013-08-08 19:13:00,78.3,77.4,29.93,SW,222,0.0,14.0,97,0.30,,,0.47,0.0,meteohub,2013-08-08 23:13:00,
2013-08-08 19:18:00,77.7,76.8,29.93,SW,222,0.0,14.0,97,0.26,,,0.47,0.0,meteohub,2013-08-08 23:18:00,
2013-08-08 19:23:00,78.1,77.7,29.93,SW,222,0.0,0.0,99,0.23,,,0.47,0.0,meteohub,2013-08-08 23:23:00,
2013-08-08 19:28:00,77.9,77.4,29.94,SW,222,0.0,0.0,98,0.23,,,0.47,0.0,meteohub,2013-08-08 23:28:00,
2013-08-08 19:33:00,77.9,77.5,29.94,SW,223,0.0,0.0,99,0.23,,,0.47,0.0,meteohub,2013-08-08 23:33:00,
2013-08-08 19:38:00,77.9,77.5,29.94,SW,215,0.0,0.0,99,0.23,,,0.47,0.0,meteohub,2013-08-08 23:38:00,
2013-08-08 19:44:00,78.1,77.7,29.94,SW,222,0.0,0.0,99,0.23,,,0.47,0.0,meteohub,2013-08-08 23:44:00,
2013-08-08 19:49:00,78.3,78.3,29.94,SW,222,0.0,0.0,100,0.23,,,0.47,0.0,meteohub,2013-08-08 23:49:00,
2013-08-08 19:54:00,78.1,77.7,29.94,SW,222,0.0,0.0,99,0.23,,,0.47,0.0,meteohub,2013-08-08 23:54:00,
2013-08-08 20:00:00,78.3,78.3,29.95,SW,220,0.0,0.0,100,0.11,,,0.47,0.0,meteohub,2013-08-09 00:00:00,
2013-08-08 20:05:00,78.3,78.3,29.95,SW,220,0.0,0.0,100,0.00,,,0.47,0.0,meteohub,2013-08-09 00:05:00,
2013-08-08 20:10:00,78.4,78.4,29.95,SW,223,0.0,0.0,100,0.00,,,0.47,0.0,meteohub,2013-08-09 00:10:00,
2013-08-08 20:16:00,78.6,78.6,29.95,SW,223,0.0,0.0,100,0.00,,,0.47,0.0,meteohub,2013-08-09 00:16:00,
2013-08-08 20:21:00,78.8,78.8,29.95,SW,223,0.0,0.0,100,0.00,,,0.47,0.0,meteohub,2013-08-09 00:21:00,
2013-08-08 20:26:00,78.4,78.4,29.95,SW,222,0.0,0.0,100,0.00,,,0.47,0.0,meteohub,2013-08-09 00:26:00,
2013-08-08 20:31:00,78.6,78.6,29.95,SW,222,0.0,0.0,100,0.00,,,0.47,0.0,meteohub,2013-08-09 00:31:00,
2013-08-08 20:36:00,78.6,78.6,29.95,SW,220,0.0,0.0,100,0.00,,,0.47,0.0,meteohub,2013-08-09 00:36:00,
2013-08-08 20:42:00,79.0,79.0,29.95,SW,222,0.0,0.0,100,0.00,,,0.47,0.0,meteohub,2013-08-09 00:42:00,
2013-08-08 20:47:00,79.0,79.0,29.96,SW,222,0.0,1.0,100,0.00,,,0.47,0.0,meteohub,2013-08-09 00:47:00,
2013-08-08 20:52:00,79.0,79.0,29.96,SW,223,0.0,1.0,100,0.00,,,0.47,0.0,meteohub,2013-08-09 00:52:00,
2013-08-08 20:57:00,78.8,78.8,29.96,SSE,161,0.0,2.0,100,0.00,,,0.47,0.0,meteohub,2013-08-09 00:57:00,
2013-08-08 21:02:00,78.8,78.8,29.96,SE,143,1.0,2.0,100,0.00,,,0.47,0.0,meteohub,2013-08-09 01:02:00,
2013-08-08 21:07:00,78.8,78.8,29.96,SE,138,1.0,5.0,100,0.00,,,0.47,0.0,meteohub,2013-08-09 01:07:00,
2013-08-08 21:13:00,79.0,79.0,29.97,SE,138,0.0,6.0,100,0.00,,,0.47,0.0,meteohub,2013-08-09 01:13:00,
2013-08-08 21:18:00,79.0,79.0,29.97,SE,140,0.0,6.0,100,0.00,,,0.47,0.0,meteohub,2013-08-09 01:18:00,
2013-08-08 21:23:00,79.0,79.0,29.97,SE,140,0.0,6.0,100,0.00,,,0.47,0.0,meteohub,2013-08-09 01:23:00,
2013-08-08 21:28:00,79.0,79.0,29.97,SE,140,0.0,0.0,100,0.00,,,0.47,0.0,meteohub,2013-08-09 01:28:00,
2013-08-08 21:33:00,79.0,79.0,29.97,SE,140,0.0,0.0,100,0.00,,,0.47,0.0,meteohub,2013-08-09 01:33:00,
2013-08-08 21:38:00,79.0,79.0,29.97,SE,140,0.0,0.0,100,0.00,,,0.47,0.0,meteohub,2013-08-09 01:38:00,
2013-08-08 21:43:00,79.0,79.0,29.97,SE,141,0.0,0.0,100,0.00,,,0.47,0.0,meteohub,2013-08-09 01:43:00,
2013-08-08 21:48:00,79.0,79.0,29.97,SE,140,0.0,0.0,100,0.00,,,0.47,0.0,meteohub,2013-08-09 01:48:00,
2013-08-08 21:53:00,79.0,79.0,29.97,SE,140,0.0,0.0,100,0.00,,,0.47,0.0,meteohub,2013-08-09 01:53:00,
2013-08-08 21:58:00,79.2,79.2,29.98,SE,134,0.0,0.0,100,0.01,,,0.48,0.0,meteohub,2013-08-09 01:58:00,
2013-08-08 22:03:00,79.0,79.0,29.98,SE,126,3.0,3.0,100,0.02,,,0.49,0.0,meteohub,2013-08-09 02:03:00,
2013-08-08 22:08:00,78.8,78.8,29.98,ESE,116,1.0,11.0,100,0.02,,,0.49,0.0,meteohub,2013-08-09 02:08:00,
2013-08-08 22:14:00,79.0,79.0,29.98,ESE,123,0.0,11.0,100,0.02,,,0.49,0.0,meteohub,2013-08-09 02:14:00,
2013-08-08 22:19:00,79.0,79.0,29.98,SE,126,0.0,11.0,100,0.02,,,0.49,0.0,meteohub,2013-08-09 02:19:00,
2013-08-08 22:24:00,79.0,79.0,29.98,SE,133,0.0,6.0,100,0.02,,,0.49,0.0,meteohub,2013-08-09 02:24:00,
2013-08-08 22:29:00,79.0,79.0,29.98,SE,133,0.0,7.0,100,0.02,,,0.49,0.0,meteohub,2013-08-09 02:29:00,
2013-08-08 22:34:00,79.2,79.2,29.98,SE,133,0.0,7.0,100,0.02,,,0.49,0.0,meteohub,2013-08-09 02:34:00,
2013-08-08 22:39:00,79.2,78.8,29.98,SE,133,0.0,7.0,99,0.02,,,0.49,0.0,meteohub,2013-08-09 02:39:00,
2013-08-08 22:44:00,79.0,78.6,29.99,SE,133,0.0,0.0,99,0.02,,,0.49,0.0,meteohub,2013-08-09 02:44:00,
2013-08-08 22:49:00,78.8,78.4,29.99,SE,133,0.0,0.0,99,0.02,,,0.49,0.0,meteohub,2013-08-09 02:49:00,
2013-08-08 22:54:00,78.8,78.8,29.99,SE,128,0.0,0.0,100,0.01,,,0.49,0.0,meteohub,2013-08-09 02:54:00,
2013-08-08 22:59:00,78.6,78.6,29.98,SE,133,0.0,0.0,100,0.01,,,0.49,0.0,meteohub,2013-08-09 02:59:00,
2013-08-08 23:04:00,78.6,78.6,29.98,SE,134,0.0,0.0,100,0.00,,,0.49,0.0,meteohub,2013-08-09 03:04:00,
2013-08-08 23:09:00,78.4,78.4,29.98,SE,134,0.0,0.0,100,0.00,,,0.49,0.0,meteohub,2013-08-09 03:09:00,
2013-08-08 23:14:00,78.6,78.6,29.98,SE,133,0.0,0.0,100,0.00,,,0.49,0.0,meteohub,2013-08-09 03:14:00,
2013-08-08 23:19:00,78.6,78.6,29.98,SE,134,0.0,0.0,100,0.00,,,0.49,0.0,meteohub,2013-08-09 03:19:00,
2013-08-08 23:24:00,78.8,78.8,29.98,SE,134,0.0,0.0,100,0.00,,,0.49,0.0,meteohub,2013-08-09 03:24:00,
2013-08-08 23:29:00,78.8,78.8,29.98,SE,134,0.0,0.0,100,0.00,,,0.49,0.0,meteohub,2013-08-09 03:29:00,
2013-08-08 23:35:00,78.8,78.8,29.98,SE,138,2.0,0.0,100,0.00,,,0.49,0.0,meteohub,2013-08-09 03:35:00,
2013-08-08 23:40:00,78.6,78.6,29.98,SE,137,0.0,0.0,100,0.00,,,0.49,0.0,meteohub,2013-08-09 03:40:00,
2013-08-08 23:45:00,78.6,78.6,29.98,SE,137,0.0,3.0,100,0.00,,,0.49,0.0,meteohub,2013-08-09 03:45:00,
2013-08-08 23:50:00,78.4,78.4,29.98,SE,138,0.0,3.0,100,0.00,,,0.49,0.0,meteohub,2013-08-09 03:50:00,
2013-08-08 23:55:00,78.3,78.3,29.98,SE,137,0.0,0.0,100,0.00,,,0.49,0.0,meteohub,2013-08-09 03:55:00,